Weather History for Tinker AFB, OK

Change the Weather History Date:

Thursday, February 7, 2013

  Actual Average Record
Temperature  
Mean Temperature 53 °F -  
Max Temperature 64 °F 49 °F 74 °F (2009)
Min Temperature 41 °F 29 °F 12 °F (2003)
Degree Days  
Heating Degree Days 12    
Growing Degree Days 3 (Base 50)    
Moisture  
Dew Point 51 °F    
Average Humidity 91    
Maximum Humidity 100    
Minimum Humidity 72    
Precipitation  
Precipitation 0.00 in - - ()
Sea Level Pressure  
Sea Level Pressure 29.92 in    
Wind  
Wind Speed 15 mph (North)    
Max Wind Speed 28 mph    
Max Gust Speed 36 mph    
Visibility 8 miles    
Events Rain    
Averages and records for this station are not official NWS values.
T = Trace of Precipitation, MM = Missing Value Source: NWS Daily Summary

Daily Weather History Graph

Daily Weather History Graph

Search for Another Location

Airport:

Trip Planner

Search our weather history database for the weather conditions in past years. The results will help you decide how hot, cold, wet, or windy it might be!

Date:

Astronomy

Feb. 07, 2013 Rise Set
Actual Time 7:23 AM CST 6:04 PM CST
Civil Twilight 6:57 AM CST 6:30 PM CST
Nautical Twilight 6:27 AM CST 7:00 PM CST
Astronomical Twilight 5:57 AM CST 7:30 PM CST
Moon 5:01 AM CST (2/7) 3:32 PM CST (2/7)
Length of Visible Light 11h 33m
Length of Day
10h 40m
Waning Crescent, 9% of the Moon is Illuminated
Feb 7
Waning Crescent
Feb 10
New
Feb 17
First Quarter
Feb 25
Full
Mar 4
Last Quarter

Hourly Weather History & Observations

Time (CST) Temp. Windchill Dew Point Humidity Pressure Visibility Wind Dir Wind Speed Gust Speed Precip Events Conditions
12:55 AM 53.6 °F - 53.6 °F 100% 29.86 in 5.0 mi SSE 16.1 mph 25.3 mph N/A   Overcast
1:55 AM 53.8 °F - 53.8 °F 100% 29.84 in 6.0 mi SSE 18.4 mph - N/A   Overcast
2:55 AM 53.8 °F - 53.8 °F 100% 29.83 in 6.0 mi SE 16.1 mph 23.0 mph N/A   Overcast
3:39 AM 53.6 °F - 53.6 °F 100% 29.81 in 2.5 mi SSE 17.3 mph - N/A   Overcast
3:40 AM 53.6 °F - 53.6 °F 100% 29.81 in 2.5 mi SSE 16.1 mph - N/A   Overcast
3:55 AM 54.1 °F - 54.1 °F 100% 29.81 in 2.5 mi SSE 15.0 mph - N/A   Overcast
4:02 AM 53.6 °F - 53.6 °F 100% 29.81 in 3.0 mi SSE 16.1 mph - N/A   Overcast
4:30 AM 53.6 °F - 53.6 °F 100% 29.80 in 2.5 mi SSE 16.1 mph - N/A   Overcast
4:38 AM 53.6 °F - 53.6 °F 100% 29.80 in 2.5 mi SSE 16.1 mph - N/A   Overcast
5:13 AM 55.4 °F - 55.4 °F 100% 29.79 in 3.0 mi SSE 16.1 mph 24.2 mph N/A   Overcast
5:55 AM 55.4 °F - 55.4 °F 100% 29.79 in 5.0 mi SSE 17.3 mph - N/A   Overcast
6:55 AM 55.6 °F - 55.6 °F 100% 29.78 in 5.0 mi SSE 16.1 mph - N/A   Overcast
7:33 AM 55.4 °F - 55.4 °F 100% 29.79 in 7.0 mi South 12.7 mph - N/A   Overcast
7:55 AM 56.1 °F - 56.1 °F 100% 29.79 in 8.0 mi South 13.8 mph 20.7 mph N/A   Overcast
8:55 AM 56.8 °F - 56.8 °F 100% 29.87 in 3.0 mi NW 8.1 mph - N/A   Overcast
9:07 AM 57.2 °F - 57.2 °F 100% 29.87 in 5.0 mi NW 6.9 mph - N/A   Light Drizzle
9:10 AM 57.2 °F - 57.2 °F 100% 29.87 in 5.0 mi NNW 5.8 mph - N/A   Light Drizzle
9:28 AM 57.2 °F - 57.2 °F 100% 29.87 in 4.0 mi North 4.6 mph - N/A   Light Drizzle
9:38 AM 57.2 °F - 57.2 °F 100% 29.87 in 5.0 mi Calm Calm - N/A   Mostly Cloudy
9:55 AM 57.4 °F - 57.4 °F 100% 29.87 in 5.0 mi East 3.5 mph - 0.00 in   Mostly Cloudy
10:55 AM 61.7 °F - 57.2 °F 85% 29.86 in 10.0 mi SE 5.8 mph - N/A   Mostly Cloudy
11:55 AM 63.9 °F - 55.2 °F 73% 29.87 in 10.0 mi Calm Calm - N/A   Scattered Clouds
12:16 PM 64.4 °F - 55.4 °F 73% 29.86 in 10.0 mi North 8.1 mph - N/A   Mostly Cloudy
12:46 PM 57.2 °F - 57.2 °F 100% 29.88 in 10.0 mi NNW 26.5 mph 32.2 mph N/A   Light Drizzle
12:55 PM 56.5 °F - 56.5 °F 100% 29.88 in 10.0 mi North 25.3 mph 32.2 mph 0.00 in Rain Light Rain
1:20 PM 53.6 °F - 53.6 °F 100% 29.89 in 10.0 mi North 27.6 mph 35.7 mph N/A   Overcast
1:21 PM 53.6 °F - 53.6 °F 100% 29.90 in 10.0 mi North 26.5 mph 35.7 mph N/A   Overcast
1:35 PM 53.6 °F - 51.8 °F 94% 29.90 in 10.0 mi North 24.2 mph 28.8 mph N/A   Overcast
1:55 PM 53.6 °F - 50.9 °F 91% 29.91 in 10.0 mi North 20.7 mph 26.5 mph 0.00 in   Overcast
2:19 PM 53.6 °F - 50.0 °F 88% 29.92 in 10.0 mi North 21.9 mph 28.8 mph N/A   Overcast
2:45 PM 55.4 °F - 48.2 °F 77% 29.93 in 10.0 mi North 20.7 mph 28.8 mph N/A   Overcast
2:55 PM 54.9 °F - 48.2 °F 78% 29.93 in 10.0 mi North 18.4 mph 26.5 mph N/A   Overcast
3:08 PM 55.4 °F - 48.2 °F 77% 29.93 in 10.0 mi North 20.7 mph 25.3 mph N/A   Light Drizzle
3:19 PM 53.6 °F - 48.2 °F 82% 29.93 in 10.0 mi North 23.0 mph 28.8 mph N/A   Overcast
3:55 PM 52.7 °F - 49.1 °F 88% 29.96 in 10.0 mi NNW 21.9 mph 28.8 mph 0.00 in   Overcast
3:59 PM 51.8 °F - 48.2 °F 88% 29.96 in 10.0 mi NNW 19.6 mph 28.8 mph N/A   Light Drizzle
4:44 PM 50.0 °F - 50.0 °F 100% 30.00 in 10.0 mi NNW 16.1 mph - N/A   Mostly Cloudy
4:55 PM 50.5 °F - 49.1 °F 95% 30.01 in 10.0 mi NNW 15.0 mph - 0.00 in   Mostly Cloudy
4:57 PM 50.0 °F - 48.2 °F 94% 30.01 in 10.0 mi NNW 15.0 mph - N/A   Mostly Cloudy
5:01 PM 50.0 °F - 48.2 °F 94% 30.01 in 10.0 mi NNW 15.0 mph - N/A   Mostly Cloudy
5:15 PM 51.8 °F - 48.2 °F 88% 30.00 in 10.0 mi NNW 16.1 mph - N/A   Light Drizzle
5:24 PM 50.0 °F - 48.2 °F 94% 30.01 in 10.0 mi North 17.3 mph 23.0 mph N/A   Mostly Cloudy
5:55 PM 50.0 °F - 45.1 °F 83% 30.02 in 10.0 mi North 17.3 mph 23.0 mph 0.00 in   Scattered Clouds
6:08 PM 50.0 °F - 42.8 °F 76% 30.03 in 10.0 mi North 15.0 mph - N/A   Light Drizzle
6:16 PM 50.0 °F - 42.8 °F 76% 30.04 in 10.0 mi North 16.1 mph - N/A   Partly Cloudy
6:55 PM 48.7 °F - 42.1 °F 78% 30.05 in 10.0 mi NNW 13.8 mph - 0.00 in   Partly Cloudy
7:55 PM 47.7 °F - 39.4 °F 73% 30.08 in 10.0 mi NNW 16.1 mph - N/A   Clear
8:55 PM 45.9 °F 40.0 °F 37.6 °F 73% 30.11 in 10.0 mi NNW 12.7 mph - N/A   Clear
9:55 PM 45.1 °F 38.4 °F 36.5 °F 72% 30.13 in 10.0 mi North 15.0 mph - N/A   Clear
10:55 PM 42.3 °F 36.8 °F 35.6 °F 77% 30.16 in 10.0 mi NNW 9.2 mph - N/A   Clear
11:55 PM 41.4 °F 34.3 °F 35.1 °F 78% 30.18 in 10.0 mi NNW 12.7 mph - N/A   Clear